Date String (YYYY-MM-DD hh:mm:ss) UTC,Instrument flags,Ambient pressure (hPa),Sample flow (lpm),Bypass flow (lpm),Sample temperature (°C),Ambient temperature (°C),ASC tube jacket temperature (°C),LED temperature (°C),Box temperature (°C),Sample RH (%),Span deviation,Mass concentration (μg/m³),Mass concentration (μg/m³),Mass concentration (μg/m³)
DateTimeUTC,F1_M11,P_M11,Q1_M11,Q2_M11,T1_M11,T2_M11,T3_M11,T4_M11,T5_M11,U1_M11,ZSPAN_M11,X2_M11,X0_M11,X1_M11
2022-03-02 17:00:00,,0830.2,5.00,0.00,28.5,27.7,00.0,37.4,30.3,12.6,0000.0,0005.13,0010.94,0004.50
2022-03-02 17:01:00,,0830.2,5.00,0.00,28.5,27.7,00.0,37.5,30.3,12.7,0000.0,0005.18,0010.85,0004.54
2022-03-02 17:02:00,,0830.2,5.00,0.00,28.5,27.7,00.0,37.4,30.3,12.2,0000.0,0005.18,0010.12,0004.54
2022-03-02 17:03:00,,0830.2,4.99,0.00,28.5,27.7,00.0,37.5,30.3,11.8,0000.0,0005.12,0009.62,0004.51
2022-03-02 17:04:00,,0830.2,5.00,0.00,28.5,27.7,00.0,37.5,30.3,11.7,0000.0,0005.05,0008.99,0004.45
2022-03-02 17:05:00,,0830.2,5.00,0.00,28.5,27.7,00.0,37.5,30.3,11.8,0000.0,0004.94,0008.80,0004.38
2022-03-02 17:06:00,,0830.2,4.99,0.00,28.5,27.7,00.0,37.5,30.3,11.7,0000.0,0004.80,0008.58,0004.29
2022-03-02 17:07:00,,0830.1,5.00,0.00,28.6,27.7,00.0,37.5,30.3,11.9,0000.0,0004.70,0008.48,0004.20
2022-03-02 17:08:00,,0830.1,5.00,0.00,28.5,27.7,00.0,37.5,30.3,12.1,0000.0,0004.65,0008.50,0004.14
2022-03-02 17:09:00,,0830.1,5.01,0.00,28.5,27.7,00.0,37.5,30.3,12.0,0000.0,0004.57,0008.61,0004.06
2022-03-02 17:10:00,,0830.1,5.00,0.00,28.6,27.8,00.0,37.5,30.3,11.7,0000.0,0004.46,0008.39,0003.97
2022-03-02 17:11:00,,0830.1,5.00,0.00,28.6,27.7,00.0,37.5,30.3,11.9,0000.0,0004.33,0007.90,0003.87
2022-03-02 17:12:00,,0830.1,4.99,0.00,28.6,27.7,00.0,37.5,30.4,11.8,0000.0,0004.21,0007.66,0003.76
2022-03-02 17:13:00,,0830.1,5.00,0.00,28.6,27.7,00.0,37.5,30.3,11.7,0000.0,0004.12,0007.54,0003.67
2022-03-02 17:14:00,,0830.1,5.00,0.00,28.6,27.7,00.0,37.5,30.3,11.7,0000.0,0004.07,0007.53,0003.62
2022-03-02 17:15:00,,0830.1,5.00,0.00,28.6,27.7,00.0,37.5,30.4,11.4,0000.0,0004.02,0007.55,0003.59
2022-03-02 17:16:00,,0830.1,5.00,0.00,28.6,27.7,00.0,37.5,30.4,11.3,0000.0,0003.98,0007.53,0003.56
2022-03-02 17:17:00,,0830.2,5.00,0.00,28.6,27.7,00.0,37.5,30.4,11.1,0000.0,0003.97,0007.57,0003.53
2022-03-02 17:18:00,,0830.1,5.00,0.00,28.6,27.7,00.0,37.5,30.4,11.1,0000.0,0003.94,0007.54,0003.50
2022-03-02 17:19:00,,0830.2,5.00,0.00,28.6,27.7,00.0,37.5,30.4,11.3,0000.0,0003.86,0007.42,0003.45
2022-03-02 17:20:00,,0830.2,5.00,0.00,28.6,27.7,00.0,37.5,30.4,11.2,0000.0,0003.79,0006.96,0003.40
2022-03-02 17:21:00,,0830.1,5.01,0.00,28.6,27.7,00.0,37.5,30.4,11.1,0000.0,0003.73,0007.15,0003.35
2022-03-02 17:22:00,,0830.1,5.01,0.00,28.6,27.8,00.0,37.5,30.4,11.2,0000.0,0003.68,0007.25,0003.31
2022-03-02 17:23:00,,0830.2,5.01,0.00,28.6,27.8,00.0,37.5,30.4,11.2,0000.0,0003.65,0007.23,0003.28
2022-03-02 17:24:00,,0830.2,5.00,0.00,28.6,27.8,00.0,37.5,30.4,11.1,0000.0,0003.62,0007.14,0003.26
2022-03-02 17:25:00,,0830.2,5.01,0.00,28.6,27.8,00.0,37.5,30.4,11.2,0000.0,0003.61,0007.07,0003.24
2022-03-02 17:26:00,,0830.2,5.00,0.00,28.6,27.9,00.0,37.6,30.4,11.0,0000.0,0003.58,0006.79,0003.21
2022-03-02 17:27:00,,0830.2,5.00,0.00,28.6,27.9,00.0,37.6,30.5,11.0,0000.0,0003.56,0006.71,0003.19
2022-03-02 17:28:00,,0830.3,5.00,0.00,28.7,27.9,00.0,37.6,30.4,11.1,0000.0,0003.53,0006.58,0003.18
2022-03-02 17:29:00,,0830.3,5.00,0.00,28.7,27.9,00.0,37.6,30.4,11.2,0000.0,0003.53,0006.66,0003.18
2022-03-02 17:30:00,,0830.2,5.01,0.00,28.7,27.9,00.0,37.6,30.5,11.2,0000.0,0003.54,0006.63,0003.16
2022-03-02 17:31:00,,0830.2,5.00,0.00,28.7,27.9,00.0,37.6,30.5,10.9,0000.0,0003.51,0006.58,0003.13
2022-03-02 17:32:00,,0830.2,5.00,0.00,28.7,27.9,00.0,37.6,30.5,11.0,0000.0,0003.46,0005.45,0003.09
2022-03-02 17:33:00,,0830.2,5.00,0.00,28.7,27.9,00.0,37.6,30.5,11.1,0000.0,0003.44,0005.16,0003.08
2022-03-02 17:34:00,,0830.2,4.99,0.00,28.7,27.9,00.0,37.6,30.5,11.3,0000.0,0003.41,0005.09,0003.06
2022-03-02 17:35:00,,0830.1,4.99,0.00,28.7,28.0,00.0,37.6,30.5,11.0,0000.0,0003.39,0005.15,0003.03
2022-03-02 17:36:00,,0830.1,5.00,0.00,28.7,28.0,00.0,37.6,30.5,10.8,0000.0,0003.32,0004.99,0002.92
2022-03-02 17:37:00,,0830.1,5.00,0.00,28.8,28.0,00.0,37.6,30.5,10.8,0000.0,0003.25,0006.49,0002.82
2022-03-02 17:38:00,,0830.1,5.00,0.00,28.8,28.0,00.0,37.7,30.6,11.1,0000.0,0003.24,0006.89,0002.77
2022-03-02 17:39:00,,0830.1,5.00,0.00,28.8,28.0,00.0,37.7,30.6,11.2,0000.0,0003.21,0006.83,0002.72
2022-03-02 17:40:00,,0830.1,5.00,0.00,28.8,28.0,00.0,37.7,30.6,11.1,0000.0,0003.17,0006.71,0002.66
2022-03-02 17:41:00,,0830.1,4.99,0.00,28.8,28.1,00.0,37.7,30.6,11.2,0000.0,0003.11,0006.61,0002.60
2022-03-02 17:42:00,,0830.1,5.01,0.00,28.8,28.1,00.0,37.7,30.7,11.1,0000.0,0003.09,0006.59,0002.57
2022-03-02 17:43:00,,0830.1,4.99,0.00,28.8,28.1,00.0,37.7,30.7,10.9,0000.0,0003.08,0006.80,0002.52
2022-03-02 17:44:00,,0830.2,5.00,0.00,28.9,28.1,00.0,37.7,30.7,10.9,0000.0,0003.00,0007.04,0002.41
2022-03-02 17:45:00,,0830.1,5.01,0.00,28.9,28.2,00.0,37.7,30.7,10.7,0000.0,0002.91,0006.90,0002.31
2022-03-02 17:46:00,,0830.1,4.99,0.00,28.9,28.2,00.0,37.8,30.7,10.7,0000.0,0002.79,0007.79,0002.18
2022-03-02 17:47:00,,0830.2,5.00,0.00,28.9,28.2,00.0,37.8,30.8,11.0,0000.0,0002.75,0007.87,0002.12
2022-03-02 17:48:00,,0830.1,5.01,0.00,29.0,28.3,00.0,37.8,30.8,11.0,0000.0,0002.74,0007.59,0002.10
2022-03-02 17:49:00,,0830.2,5.00,0.00,29.0,28.3,00.0,37.8,30.8,10.6,0000.0,0002.60,0007.31,0001.99
2022-03-02 17:50:00,,0830.2,5.01,0.00,29.0,28.3,00.0,37.8,30.8,10.5,0000.0,0002.51,0007.19,0001.88
2022-03-02 17:51:00,,0830.2,5.00,0.00,29.0,28.3,00.0,37.8,30.9,10.4,0000.0,0002.42,0007.09,0001.80
2022-03-02 17:52:00,,0830.1,5.01,0.00,29.0,28.4,00.0,37.9,30.9,10.6,0000.0,0002.34,0007.01,0001.72
2022-03-02 17:53:00,,0830.1,5.00,0.00,29.1,28.4,00.0,37.9,30.9,10.4,0000.0,0002.28,0007.02,0001.64
2022-03-02 17:54:00,,0830.1,5.00,0.00,29.1,28.4,00.0,37.9,30.9,10.2,0000.0,0002.21,0006.80,0001.57
2022-03-02 17:55:00,,0830.1,5.00,0.00,29.1,28.4,00.0,37.9,30.9,10.2,0000.0,0002.13,0006.91,0001.51
2022-03-02 17:56:00,,0830.1,5.00,0.00,29.1,28.5,00.0,38.0,31.0,10.2,0000.0,0002.10,0007.15,0001.47
2022-03-02 17:57:00,,0830.1,4.99,0.00,29.2,28.5,00.0,38.0,31.0,10.3,0000.0,0002.05,0005.62,0001.46
2022-03-02 17:58:00,,0830.1,5.00,0.00,29.2,28.5,00.0,38.0,31.0,10.4,0000.0,0002.06,0005.97,0001.47
2022-03-02 17:59:00,,0830.1,5.00,0.00,29.2,28.5,00.0,38.0,31.0,10.6,0000.0,0002.05,0005.28,0001.45
